• Em Portugal
  • Lista de países
  • Para 7 dias
  • Temperatura da água
  • Mapas de satélite
  • Mapa do tempo
  • Widgets de tempo
  • user-avatar
    Iniciar Sessão

    Previsão horária em Apole

    Hoje, 21 Setembro, Sexta-feira

    Tempo Temperatura Precipitação Vento Pressão Humidade
    00:00 +16°C° 0 mm 2 m/s 747 mmHg 85%
    01:00 +15°C° 0 mm 2 m/s 747 mmHg 87%
    02:00 +15°C° 0 mm 2 m/s 747 mmHg 88%
    03:00 +15°C° 0 mm 2 m/s 747 mmHg 89%
    04:00 +15°C° 0 mm 2 m/s 747 mmHg 90%
    05:00 +15°C° 0 mm 2 m/s 747 mmHg 92%
    06:00 +16°C° 0 mm 2 m/s 747 mmHg 87%
    07:00 +17°C° 0 mm 3 m/s 747 mmHg 83%
    08:00 +18°C° 0 mm 3 m/s 747 mmHg 80%
    09:00 +20°C° 0 mm 3 m/s 747 mmHg 75%
    10:00 +21°C° 0 mm 3 m/s 747 mmHg 69%
    11:00 +24°C° 0 mm 3 m/s 747 mmHg 64%
    12:00 +25°C° 0 mm 3 m/s 747 mmHg 60%
    13:00 +26°C° 0 mm 4 m/s 747 mmHg 57%
    14:00 +27°C° 0 mm 4 m/s 747 mmHg 54%
    15:00 +26°C° 0 mm 3 m/s 746 mmHg 59%
    16:00 +25°C° 0 mm 3 m/s 746 mmHg 64%
    17:00 +24°C° 0 mm 2 m/s 746 mmHg 69%
    18:00 +23°C° 0 mm 2 m/s 745 mmHg 72%
    19:00 +20°C° 0 mm 3 m/s 745 mmHg 76%
    20:00 +19°C° 0 mm 3 m/s 745 mmHg 80%
    21:00 +19°C° 0 mm 3 m/s 745 mmHg 78%
    22:00 +18°C° 0 mm 3 m/s 744 mmHg 76%
    23:00 +18°C° 0 mm 3 m/s 744 mmHg 74%

    Amanhã, 22 Setembro, Sábado

    Tempo Temperatura Precipitação Vento Pressão Humidade
    00:00 +18°C° 0 mm 4 m/s 744 mmHg 73%
    01:00 +18°C° 0 mm 4 m/s 743 mmHg 72%
    02:00 +18°C° 0 mm 4 m/s 743 mmHg 71%
    03:00 +17°C° 0 mm 4 m/s 742 mmHg 71%
    04:00 +16°C° 0 mm 5 m/s 741 mmHg 71%
    05:00 +16°C° 0 mm 5 m/s 741 mmHg 72%
    06:00 +16°C° 0 mm 5 m/s 741 mmHg 70%
    07:00 +17°C° 0 mm 5 m/s 740 mmHg 68%
    08:00 +17°C° 0 mm 6 m/s 740 mmHg 67%
    09:00 +19°C° 0.1 mm 6 m/s 740 mmHg 67%
    10:00 +19°C° 0.1 mm 6 m/s 741 mmHg 68%
    11:00 +19°C° 0.1 mm 6 m/s 741 mmHg 68%
    12:00 +16°C° 0.1 mm 5 m/s 741 mmHg 72%
    13:00 +14°C° 0.1 mm 4 m/s 742 mmHg 75%
    14:00 +12°C° 0.1 mm 3 m/s 742 mmHg 79%
    15:00 +11°C° 0.2 mm 3 m/s 742 mmHg 82%
    16:00 +11°C° 0.2 mm 3 m/s 742 mmHg 85%
    17:00 +11°C° 0.2 mm 3 m/s 742 mmHg 87%
    18:00 +11°C° 0.2 mm 3 m/s 742 mmHg 88%
    19:00 +10°C° 0.2 mm 3 m/s 743 mmHg 89%
    20:00 +10°C° 0.2 mm 3 m/s 743 mmHg 89%
    21:00 +10°C° 0.1 mm 3 m/s 743 mmHg 89%
    22:00 +10°C° 0.1 mm 3 m/s 742 mmHg 89%
    23:00 +10°C° 0.1 mm 3 m/s 742 mmHg 89%

    Depois de amanhã, 23 Setembro, Domingo

    Tempo Temperatura Precipitação Vento Pressão Humidade
    00:00 +9°C° 0 mm 3 m/s 742 mmHg 90%
    01:00 +9°C° 0 mm 3 m/s 742 mmHg 91%
    02:00 +9°C° 0 mm 2 m/s 742 mmHg 92%
    03:00 +8°C° 0 mm 2 m/s 742 mmHg 94%
    04:00 +8°C° 0 mm 2 m/s 741 mmHg 95%
    05:00 +7°C° 0 mm 2 m/s 741 mmHg 96%
    06:00 +8°C° 0 mm 3 m/s 741 mmHg 93%
    07:00 +8°C° 0 mm 3 m/s 740 mmHg 90%
    08:00 +9°C° 0 mm 3 m/s 740 mmHg 87%
    09:00 +10°C° 0 mm 4 m/s 740 mmHg 80%
    10:00 +11°C° 0 mm 4 m/s 740 mmHg 73%
    11:00 +13°C° 0 mm 5 m/s 740 mmHg 67%
    12:00 +13°C° 0.3 mm 5 m/s 740 mmHg 66%
    13:00 +13°C° 0.3 mm 5 m/s 739 mmHg 65%
    14:00 +13°C° 0.3 mm 5 m/s 739 mmHg 64%
    15:00 +12°C° 0.2 mm 4 m/s 739 mmHg 69%
    16:00 +11°C° 0.2 mm 4 m/s 739 mmHg 74%
    17:00 +11°C° 0.2 mm 3 m/s 739 mmHg 79%
    18:00 +10°C° 0.1 mm 3 m/s 739 mmHg 82%
    19:00 +9°C° 0.1 mm 3 m/s 739 mmHg 85%
    20:00 +8°C° 0.1 mm 3 m/s 739 mmHg 89%
    21:00 +8°C° 0.2 mm 3 m/s 739 mmHg 90%
    22:00 +7°C° 0.2 mm 4 m/s 739 mmHg 91%
    23:00 +7°C° 0.2 mm 4 m/s 739 mmHg 92%

    24 Setembro, Segunda-feira

    Tempo Temperatura Precipitação Vento Pressão Humidade
    00:00 +7°C° 0 mm 4 m/s 738 mmHg 93%
    01:00 +7°C° 0 mm 4 m/s 738 mmHg 94%
    02:00 +7°C° 0 mm 3 m/s 738 mmHg 94%
    03:00 +7°C° 0 mm 3 m/s 738 mmHg 94%
    04:00 +7°C° 0 mm 3 m/s 738 mmHg 95%
    05:00 +7°C° 0 mm 3 m/s 738 mmHg 95%
    06:00 +7°C° 0 mm 3 m/s 738 mmHg 93%
    07:00 +7°C° 0 mm 3 m/s 738 mmHg 92%
    08:00 +8°C° 0 mm 2 m/s 738 mmHg 90%
    09:00 +8°C° 0 mm 2 m/s 738 mmHg 87%
    10:00 +9°C° 0 mm 2 m/s 738 mmHg 84%
    11:00 +10°C° 0 mm 1 m/s 738 mmHg 81%
    12:00 +11°C° 0 mm 1 m/s 738 mmHg 78%
    13:00 +11°C° 0 mm 1 m/s 738 mmHg 76%
    14:00 +12°C° 0 mm 1 m/s 738 mmHg 74%
    15:00 +11°C° 0.1 mm 1 m/s 738 mmHg 77%
    16:00 +11°C° 0.1 mm 1 m/s 738 mmHg 80%
    17:00 +10°C° 0.1 mm 1 m/s 738 mmHg 83%
    18:00 +8°C° 0.2 mm 2 m/s 738 mmHg 85%
    19:00 +8°C° 0.2 mm 2 m/s 738 mmHg 87%
    20:00 +7°C° 0.2 mm 3 m/s 738 mmHg 89%
    21:00 +7°C° 0 mm 3 m/s 738 mmHg 88%
    22:00 +7°C° 0 mm 3 m/s 739 mmHg 88%
    23:00 +6°C° 0 mm 4 m/s 739 mmHg 87%

    25 Setembro, Terça-feira

    Tempo Temperatura Precipitação Vento Pressão Humidade
    00:00 +5°C° 0 mm 4 m/s 739 mmHg 86%
    01:00 +5°C° 0 mm 4 m/s 739 mmHg 86%
    02:00 +5°C° 0 mm 4 m/s 739 mmHg 85%
    03:00 +4°C° 0 mm 4 m/s 740 mmHg 86%
    04:00 +4°C° 0 mm 4 m/s 740 mmHg 86%
    05:00 +4°C° 0 mm 4 m/s 740 mmHg 87%
    06:00 +4°C° 0 mm 4 m/s 741 mmHg 85%
    07:00 +5°C° 0 mm 5 m/s 741 mmHg 82%
    08:00 +5°C° 0 mm 5 m/s 742 mmHg 80%
    09:00 +5°C° 0 mm 6 m/s 742 mmHg 73%
    10:00 +7°C° 0 mm 6 m/s 742 mmHg 67%
    11:00 +8°C° 0 mm 6 m/s 743 mmHg 61%
    12:00 +8°C° 0.1 mm 6 m/s 743 mmHg 60%
    13:00 +8°C° 0.1 mm 7 m/s 743 mmHg 58%
    14:00 +8°C° 0.1 mm 7 m/s 743 mmHg 57%
    15:00 +8°C° 0 mm 6 m/s 744 mmHg 57%
    16:00 +7°C° 0 mm 6 m/s 744 mmHg 57%
    17:00 +6°C° 0 mm 5 m/s 745 mmHg 57%
    18:00 +5°C° 0 mm 5 m/s 745 mmHg 59%
    19:00 +4°C° 0 mm 4 m/s 745 mmHg 60%
    20:00 +3°C° 0 mm 4 m/s 746 mmHg 61%
    21:00 +3°C° 0 mm 3 m/s 746 mmHg 64%
    22:00 +2°C° 0 mm 3 m/s 745 mmHg 66%
    23:00 +2°C° 0 mm 2 m/s 745 mmHg 68%

    26 Setembro, Quarta-feira

    Tempo Temperatura Precipitação Vento Pressão Humidade
    00:00 +2°C° 0.1 mm 2 m/s 745 mmHg 71%
    01:00 +2°C° 0.1 mm 2 m/s 745 mmHg 74%
    02:00 +2°C° 0.1 mm 2 m/s 744 mmHg 76%
    03:00 +2°C° 0.4 mm 2 m/s 744 mmHg 81%
    04:00 +3°C° 0.4 mm 2 m/s 744 mmHg 85%
    05:00 +4°C° 0.4 mm 1 m/s 744 mmHg 90%
    06:00 +5°C° 0.1 mm 1 m/s 744 mmHg 90%
    07:00 +5°C° 0.1 mm 1 m/s 744 mmHg 89%
    08:00 +6°C° 0.1 mm 1 m/s 743 mmHg 89%
    09:00 +6°C° 0.1 mm 2 m/s 744 mmHg 84%
    10:00 +7°C° 0.1 mm 2 m/s 744 mmHg 78%
    11:00 +8°C° 0.1 mm 2 m/s 744 mmHg 73%
    12:00 +8°C° 0.2 mm 3 m/s 744 mmHg 71%
    13:00 +9°C° 0.2 mm 3 m/s 744 mmHg 70%
    14:00 +9°C° 0.2 mm 3 m/s 744 mmHg 68%
    15:00 +9°C° 0.1 mm 3 m/s 744 mmHg 71%
    16:00 +8°C° 0.1 mm 2 m/s 744 mmHg 73%
    17:00 +7°C° 0.1 mm 2 m/s 745 mmHg 76%
    18:00 +6°C° 0 mm 2 m/s 745 mmHg 80%
    19:00 +5°C° 0 mm 2 m/s 745 mmHg 83%
    20:00 +4°C° 0 mm 2 m/s 746 mmHg 87%
    21:00 +3°C° 0 mm 2 m/s 746 mmHg 88%
    22:00 +3°C° 0 mm 2 m/s 746 mmHg 88%
    23:00 +3°C° 0 mm 2 m/s 747 mmHg 88%
    Mostrar mais